Location: Stanford
(52.2833°N, 2.4333°W)
Time: 19:44:10
(UTC+00:00)

SAR-Lupe-4 - Pass Details

Date: 22 January 2021
Orbit: 480 x 484 km, 98.2° (Epoch: 26 February)

Event Time Altitude Azimuth Distance (km) Brightness Sun altitude
Exits shadow 19:14:48 65° 255° (WSW) 538 3.9 -23.4°
Drops below altitude 10° 19:18:05 10° 205° (SSW) 1,660 6.6 -23.9°
Sets 19:20:08 0° 203° (SSW) 2,534 7.5 -24.2°
